When you browse on this site, cookies collect data to enhance your experience and personalize the content and advertising you see.
Visit our Privacy Policy to learn more. By continuing to use the site, you agree to this use of cookies and data.
  • In Lithuania
  • List of Countries
  • For 7 days
  • Water Temperature
  • Satellite Maps
  • Weather Map
  • Weather Widgets
  • user-avatar
    Login

    Hourly Weather Algiers

    Today, 23 May, Thursday

    Time Temperature Precipitation Wind Pressure Humidity
    00:00 +19°C° 0 mm 2 mps 751 mmHg 65%
    01:00 +18°C° 0 mm 2 mps 750 mmHg 63%
    02:00 +18°C° 0 mm 2 mps 750 mmHg 60%
    03:00 +18°C° 0 mm 2 mps 750 mmHg 58%
    04:00 +19°C° 0 mm 2 mps 750 mmHg 55%
    05:00 +19°C° 0 mm 2 mps 750 mmHg 51%
    06:00 +21°C° 0 mm 1 mps 750 mmHg 47%
    07:00 +23°C° 0 mm 2 mps 750 mmHg 42%
    08:00 +24°C° 0 mm 2 mps 750 mmHg 36%
    09:00 +26°C° 0 mm 2 mps 750 mmHg 31%
    10:00 +27°C° 0 mm 3 mps 750 mmHg 29%
    11:00 +28°C° 0 mm 3 mps 750 mmHg 28%
    12:00 +28°C° 0 mm 4 mps 750 mmHg 26%
    13:00 +28°C° 0 mm 4 mps 750 mmHg 28%
    14:00 +28°C° 0 mm 4 mps 749 mmHg 29%
    15:00 +28°C° 0 mm 5 mps 749 mmHg 30%
    16:00 +27°C° 0 mm 4 mps 749 mmHg 33%
    17:00 +26°C° 0 mm 4 mps 749 mmHg 36%
    18:00 +25°C° 0 mm 4 mps 748 mmHg 38%
    19:00 +24°C° 0 mm 3 mps 748 mmHg 40%
    20:00 +22°C° 0 mm 3 mps 749 mmHg 42%
    21:00 +21°C° 0 mm 3 mps 749 mmHg 44%
    22:00 +21°C° 0 mm 2 mps 748 mmHg 42%
    23:00 +21°C° 0 mm 2 mps 748 mmHg 40%

    Tomorrow, 24 May, Friday

    Time Temperature Precipitation Wind Pressure Humidity
    00:00 +21°C° 0 mm 2 mps 747 mmHg 38%
    01:00 +21°C° 0 mm 2 mps 747 mmHg 36%
    02:00 +21°C° 0 mm 2 mps 747 mmHg 34%
    03:00 +20°C° 0 mm 2 mps 746 mmHg 32%
    04:00 +21°C° 0 mm 2 mps 746 mmHg 32%
    05:00 +21°C° 0 mm 2 mps 746 mmHg 32%
    06:00 +23°C° 0 mm 1 mps 746 mmHg 32%
    07:00 +25°C° 0 mm 2 mps 746 mmHg 30%
    08:00 +27°C° 0 mm 2 mps 746 mmHg 28%
    09:00 +28°C° 0 mm 2 mps 746 mmHg 26%
    10:00 +29°C° 0 mm 2 mps 745 mmHg 27%
    11:00 +29°C° 0 mm 3 mps 745 mmHg 27%
    12:00 +30°C° 0 mm 4 mps 745 mmHg 28%
    13:00 +29°C° 0 mm 4 mps 744 mmHg 31%
    14:00 +28°C° 0 mm 4 mps 744 mmHg 35%
    15:00 +27°C° 0 mm 4 mps 744 mmHg 38%
    16:00 +26°C° 0 mm 4 mps 744 mmHg 46%
    17:00 +23°C° 0 mm 4 mps 744 mmHg 54%
    18:00 +22°C° 0 mm 5 mps 744 mmHg 62%
    19:00 +21°C° 0 mm 5 mps 744 mmHg 66%
    20:00 +21°C° 0 mm 5 mps 745 mmHg 70%
    21:00 +20°C° 0 mm 5 mps 745 mmHg 73%
    22:00 +20°C° 0 mm 4 mps 745 mmHg 75%
    23:00 +19°C° 0 mm 4 mps 745 mmHg 77%

    Day after tomorrow, 25 May, Saturday

    Time Temperature Precipitation Wind Pressure Humidity
    00:00 +19°C° 0 mm 4 mps 745 mmHg 79%
    01:00 +19°C° 0 mm 4 mps 745 mmHg 81%
    02:00 +18°C° 0 mm 3 mps 745 mmHg 82%
    03:00 +18°C° 0 mm 3 mps 745 mmHg 84%
    04:00 +18°C° 0 mm 2 mps 745 mmHg 82%
    05:00 +19°C° 0 mm 2 mps 745 mmHg 80%
    06:00 +20°C° 0 mm 1 mps 745 mmHg 78%
    07:00 +20°C° 0.2 mm 2 mps 745 mmHg 73%
    08:00 +20°C° 0.2 mm 2 mps 746 mmHg 67%
    09:00 +21°C° 0.2 mm 2 mps 746 mmHg 62%
    10:00 +22°C° 1.1 mm 3 mps 746 mmHg 61%
    11:00 +22°C° 1.1 mm 3 mps 746 mmHg 59%
    12:00 +22°C° 1.1 mm 4 mps 746 mmHg 58%
    13:00 +21°C° 0.4 mm 4 mps 746 mmHg 60%
    14:00 +21°C° 0.4 mm 4 mps 746 mmHg 63%
    15:00 +20°C° 0.4 mm 4 mps 746 mmHg 65%
    16:00 +20°C° 0.2 mm 3 mps 746 mmHg 66%
    17:00 +20°C° 0.2 mm 3 mps 747 mmHg 67%
    18:00 +19°C° 0.2 mm 2 mps 747 mmHg 68%
    19:00 +19°C° 0.4 mm 3 mps 747 mmHg 71%
    20:00 +18°C° 0.4 mm 3 mps 748 mmHg 74%
    21:00 +18°C° 0.4 mm 3 mps 748 mmHg 77%
    22:00 +18°C° 0.8 mm 4 mps 748 mmHg 79%
    23:00 +17°C° 0.8 mm 5 mps 748 mmHg 81%

    26 May, Sunday

    Time Temperature Precipitation Wind Pressure Humidity
    00:00 +16°C° 0.8 mm 5 mps 747 mmHg 83%
    01:00 +16°C° 1 mm 6 mps 747 mmHg 82%
    02:00 +16°C° 1 mm 6 mps 747 mmHg 82%
    03:00 +16°C° 1 mm 6 mps 747 mmHg 82%
    04:00 +17°C° 0.5 mm 6 mps 747 mmHg 80%
    05:00 +17°C° 0.5 mm 5 mps 747 mmHg 78%
    06:00 +18°C° 0.5 mm 4 mps 747 mmHg 76%
    07:00 +19°C° 0.6 mm 4 mps 748 mmHg 74%
    08:00 +19°C° 0.6 mm 4 mps 748 mmHg 72%
    09:00 +20°C° 0.6 mm 3 mps 748 mmHg 70%
    10:00 +19°C° 1.1 mm 3 mps 748 mmHg 72%
    11:00 +19°C° 1.1 mm 3 mps 748 mmHg 74%
    12:00 +19°C° 1.1 mm 3 mps 748 mmHg 76%
    13:00 +19°C° 0.3 mm 2 mps 748 mmHg 71%
    14:00 +20°C° 0.3 mm 2 mps 748 mmHg 66%
    15:00 +21°C° 0.3 mm 2 mps 748 mmHg 61%
    16:00 +21°C° 0 mm 2 mps 748 mmHg 61%
    17:00 +22°C° 0 mm 1 mps 748 mmHg 61%
    18:00 +21°C° 0 mm 1 mps 748 mmHg 61%
    19:00 +21°C° 0 mm 1 mps 749 mmHg 63%
    20:00 +20°C° 0 mm 1 mps 749 mmHg 65%
    21:00 +19°C° 0 mm 1 mps 749 mmHg 67%
    22:00 +19°C° 0 mm 1 mps 749 mmHg 68%
    23:00 +18°C° 0 mm 2 mps 748 mmHg 69%

    27 May, Monday

    Time Temperature Precipitation Wind Pressure Humidity
    00:00 +17°C° 0 mm 2 mps 748 mmHg 69%
    01:00 +17°C° 0 mm 2 mps 748 mmHg 68%
    02:00 +17°C° 0 mm 2 mps 747 mmHg 68%
    03:00 +17°C° 0 mm 2 mps 747 mmHg 67%
    04:00 +17°C° 0 mm 2 mps 747 mmHg 65%
    05:00 +18°C° 0 mm 2 mps 747 mmHg 62%
    06:00 +18°C° 0 mm 2 mps 747 mmHg 60%
    07:00 +21°C° 0 mm 1 mps 747 mmHg 54%
    08:00 +23°C° 0 mm 1 mps 747 mmHg 48%
    09:00 +23°C° 0 mm 0 mps 747 mmHg 42%
    10:00 +26°C° 0 mm 1 mps 747 mmHg 39%
    11:00 +27°C° 0 mm 1 mps 747 mmHg 35%
    12:00 +28°C° 0 mm 1 mps 746 mmHg 32%
    13:00 +28°C° 0 mm 2 mps 746 mmHg 33%
    14:00 +28°C° 0 mm 2 mps 746 mmHg 33%
    15:00 +28°C° 0 mm 3 mps 745 mmHg 34%
    16:00 +27°C° 0 mm 3 mps 745 mmHg 39%
    17:00 +26°C° 0 mm 4 mps 745 mmHg 43%
    18:00 +25°C° 0 mm 4 mps 744 mmHg 48%
    19:00 +23°C° 0 mm 4 mps 745 mmHg 51%
    20:00 +22°C° 0 mm 3 mps 745 mmHg 54%
    21:00 +21°C° 0 mm 3 mps 745 mmHg 57%
    22:00 +21°C° 0 mm 3 mps 745 mmHg 56%
    23:00 +21°C° 0 mm 3 mps 744 mmHg 55%

    28 May, Tuesday

    Time Temperature Precipitation Wind Pressure Humidity
    00:00 +21°C° 0 mm 3 mps 744 mmHg 55%
    01:00 +21°C° 0 mm 2 mps 743 mmHg 53%
    02:00 +21°C° 0 mm 2 mps 743 mmHg 52%
    03:00 +21°C° 0 mm 2 mps 742 mmHg 51%
    04:00 +21°C° 0 mm 2 mps 742 mmHg 49%
    05:00 +23°C° 0 mm 2 mps 742 mmHg 47%
    06:00 +23°C° 0 mm 2 mps 742 mmHg 45%
    07:00 +25°C° 0 mm 2 mps 742 mmHg 40%
    08:00 +27°C° 0 mm 1 mps 742 mmHg 35%
    09:00 +29°C° 0 mm 1 mps 741 mmHg 31%
    10:00 +30°C° 0 mm 2 mps 741 mmHg 29%
    11:00 +31°C° 0 mm 2 mps 741 mmHg 27%
    12:00 +34°C° 0 mm 3 mps 740 mmHg 25%
    13:00 +33°C° 0 mm 3 mps 740 mmHg 27%
    14:00 +33°C° 0 mm 4 mps 740 mmHg 29%
    15:00 +32°C° 0 mm 4 mps 739 mmHg 31%
    16:00 +30°C° 0 mm 3 mps 739 mmHg 35%
    17:00 +29°C° 0 mm 2 mps 739 mmHg 39%
    18:00 +28°C° 0 mm 1 mps 740 mmHg 43%
    19:00 +27°C° 0.1 mm 1 mps 740 mmHg 45%
    20:00 +26°C° 0.1 mm 2 mps 741 mmHg 46%
    21:00 +25°C° 0.1 mm 2 mps 742 mmHg 48%
    22:00 +25°C° 0.1 mm 2 mps 742 mmHg 52%
    23:00 +24°C° 0.1 mm 2 mps 742 mmHg 57%
    Show more